Home > Weather > Mülheim > Past weeks

Flag for Germany Past Weather in Mülheim, North Rhine-Westphalia, Germany — Yesterday and Last 2 Weeks

Now
70 °F

Scattered showers. Broken clouds.


Feels Like: 70 °F
Forecast: 60 / 73 °F
Wind: 9 mph from South

Location: Koeln / Bonn

Current Time: Jul 29, 2016 at 2:04:41 PM

Latest Report: Jul 29, 2016 at 1:20 PM


Visibility: N/A

Pressure: 29.92 "Hg

Humidity: 83%

Dew Point: 64 °F

Location of MülheimLocation

Past Weather in Mülheim — Graph

°F

Mülheim Temperature Yesterday

Maximum temperature yesterday: 70 °F (at 5:20 PM)
Minimum temperature yesterday: 63 °F (at 5:20 AM)
Average temperature yesterday: 66 °F

High & Low Weather Summary for the Past Weeks

 TemperatureHumidityPressure
High93 °F (Jul 20, 3:20 PM)100% (Jul 18, 4:20 AM)30.30 "Hg (Jul 18, 4:20 AM)
Low52 °F (Jul 15, 6:20 AM)32% (Jul 20, 3:20 PM)29.86 "Hg (Jul 20, 5:20 PM)
Average69 °F74%30.09 "Hg
* Reported Jul 14 12:20 PM — Jul 29 12:50 PM, Mülheim, Weather by CustomWeather, © 2016

Note: Actual official high and low records may vary slightly from our data, if they occured in-between our weather recording intervals... More about our weather records

Advertising

Mülheim Weather History for the Previous 24 Hours

Scroll right to see more
 ConditionsComfort  
Time TempWeatherWind HumidityBarometerVisibility
12:50 PM
Fri, Jul 29
68 °FBroken clouds.8 mph83%29.92 "HgN/A
12:20 PM68 °FBroken clouds.8 mph83%29.92 "HgN/A
11:50 AM64 °FBroken clouds.8 mph94%29.92 "HgN/A
11:20 AM64 °FLight rain. Partly sunny.8 mph94%29.95 "HgN/A
10:50 AM63 °FLight rain. Broken clouds.8 mph100%29.95 "HgN/A
10:20 AM63 °FRain. Partly sunny.7 mph100%29.95 "Hg4 mi
9:50 AM63 °FLight rain. Partly sunny.7 mph94%29.95 "HgN/A
9:20 AM63 °FLight rain. Partly sunny.7 mph94%29.95 "HgN/A
8:50 AM63 °FLight rain. Partly sunny.8 mph94%29.95 "HgN/A
8:20 AM63 °FLight rain. Partly sunny.6 mph88%29.95 "HgN/A
7:50 AM63 °FLight rain. Partly sunny.6 mph94%29.95 "HgN/A
7:20 AM63 °FPartly sunny.6 mph88%29.95 "HgN/A
6:50 AM61 °FPartly cloudy.6 mph94%29.95 "HgN/A
6:20 AM61 °FPassing clouds.7 mph94%29.95 "HgN/A
5:50 AM61 °FPassing clouds.6 mph94%29.95 "HgN/A
5:20 AM61 °FPassing clouds.3 mph94%29.95 "HgN/A
4:50 AM61 °FPassing clouds.5 mph94%29.95 "HgN/A
4:20 AM63 °FSprinkles. Passing clouds.5 mph83%29.95 "HgN/A
3:50 AM63 °FSprinkles. Passing clouds.5 mph83%29.95 "HgN/A
3:20 AM61 °FSprinkles. Passing clouds.3 mph94%29.95 "HgN/A
2:50 AM61 °FPassing clouds.5 mph88%29.95 "HgN/A
2:20 AM61 °FFog.2 mph94%29.95 "HgN/A
1:50 AM61 °FFog.2 mph94%29.95 "HgN/A
1:20 AM61 °FFog.1 mph94%29.95 "HgN/A
12:50 AM63 °FFog.No wind88%29.95 "HgN/A
12:20 AM63 °FClear.2 mph88%29.95 "Hg10 mi
11:50 PM
Thu, Jul 28
63 °FClear.1 mph94%29.95 "Hg10 mi
11:20 PM63 °FClear.2 mph94%29.95 "Hg10 mi
10:50 PM63 °FPassing clouds.2 mph88%29.95 "HgN/A
10:20 PM63 °FSunny.2 mph88%29.95 "Hg10 mi
9:50 PM64 °FPassing clouds.2 mph88%29.95 "HgN/A
9:20 PM66 °FPassing clouds.1 mph88%29.95 "HgN/A
8:50 PM68 °FPassing clouds.1 mph88%29.95 "HgN/A
8:20 PM70 °FScattered clouds.5 mph83%29.92 "HgN/A
7:50 PM70 °FBroken clouds.2 mph83%29.92 "HgN/A
7:20 PM68 °FBroken clouds.8 mph88%29.95 "HgN/A
6:50 PM70 °FPartly sunny.6 mph83%29.95 "HgN/A
6:20 PM70 °FPartly sunny.7 mph83%29.95 "HgN/A
5:50 PM70 °FBroken clouds.7 mph83%29.95 "HgN/A
5:20 PM70 °FBroken clouds.7 mph83%29.95 "HgN/A
4:50 PM68 °FScattered showers. Partly sunny.6 mph88%29.95 "HgN/A
4:20 PM66 °FScattered showers. Partly sunny.3 mph94%29.98 "HgN/A
3:50 PM64 °FRain showers. Broken clouds.6 mph94%29.98 "Hg5 mi
3:20 PM64 °FLots of rain. Broken clouds.9 mph94%29.98 "Hg2 mi
2:50 PM64 °FRain showers. Broken clouds.5 mph100%29.98 "Hg3 mi
2:20 PM66 °FRain showers. Broken clouds.3 mph88%29.98 "Hg2 mi
Weather by CustomWeather, © 2016

See weather overviewHow to use our weather pages